This is the latest recevied weather packets stored in our database for station/object DD3FC-1. If no packets are shown the sender has not sent any weather packets the latest 10 day(s).
| Time | Temp. | Humidity | Pressure | Rain* | Wind** | Luminosity | Snow |
|---|---|---|---|---|---|---|---|
| 1777767038 | 15.56° C | 63% | 1016.5 hPa | 0 mm | - | - | - |
| 1777766438 | 15.56° C | 63% | 1016.6 hPa | 0 mm | - | - | - |
| 1777765838 | 15.56° C | 60% | 1016.6 hPa | 0 mm | - | - | - |
| 1777765238 | 16.11° C | 60% | 1016.8 hPa | 0 mm | - | - | - |
| 1777764638 | 16.11° C | 59% | 1016.9 hPa | 0 mm | - | - | - |
| 1777764038 | 16.67° C | 57% | 1016.9 hPa | 0 mm | - | - | - |
| 1777763438 | 16.67° C | 53% | 1016.8 hPa | 0 mm | - | - | - |
| 1777762838 | 17.22° C | 53% | 1016.7 hPa | 0 mm | - | - | - |
| 1777762238 | 17.22° C | 53% | 1016.7 hPa | 0 mm | - | - | - |
| 1777761638 | 17.22° C | 52% | 1016.6 hPa | 0 mm | - | - | - |
| 1777761038 | 17.22° C | 52% | 1016.4 hPa | 0 mm | - | - | - |
| 1777760438 | 17.22° C | 52% | 1016.5 hPa | 0 mm | - | - | - |
| 1777759838 | 17.78° C | 53% | 1016.4 hPa | 0 mm | - | - | - |
| 1777759238 | 17.78° C | 52% | 1016.4 hPa | 0 mm | - | - | - |
| 1777758638 | 17.78° C | 50% | 1016.5 hPa | 0 mm | - | - | - |
| 1777758038 | 18.33° C | 51% | 1016.4 hPa | 0 mm | - | - | - |
| 1777757438 | 18.33° C | 50% | 1016.3 hPa | 0 mm | - | - | - |
| 1777756838 | 18.33° C | 50% | 1016.4 hPa | 0 mm | - | - | - |
| 1777756238 | 18.33° C | 49% | 1016.5 hPa | 0 mm | - | - | - |
| 1777755639 | 18.89° C | 48% | 1016.5 hPa | 0 mm | - | - | - |
| 1777755039 | 18.89° C | 47% | 1016.7 hPa | 0 mm | - | - | - |
| 1777754439 | 19.44° C | 46% | 1016.6 hPa | 0 mm | - | - | - |
| 1777753839 | 19.44° C | 46% | 1016.7 hPa | 0 mm | - | - | - |
| 1777753239 | 19.44° C | 46% | 1016.7 hPa | 0 mm | - | - | - |
| 1777752639 | 20° C | 45% | 1016.9 hPa | 0 mm | - | - | - |
* Rain latest hour (hover to see other rain measurements)
** Current wind speed in m/s (hover to see current wind gust speed)